| time (UTC) | temp F | wind direction | speed MPH | gust MPH | rain 1hr in | rain 24hr in | rain mn in | humidity % | barometer mb |
| 20260505204608 | 61 | 225 | 0.0 | 0.0 | 0.10 | 0.18 | 0.18 | 90 | 1072.3 |
| 20260505203609 | 61 | 316 | 0.0 | 2.0 | 0.10 | 0.17 | 0.16 | 89 | 1072.3 |
| 20260505202624 | 61 | 202 | 1.0 | 3.0 | 0.08 | 0.15 | 0.15 | 88 | 1072.3 |
| 20260505201709 | 61 | 277 | 0.0 | 1.0 | 0.06 | 0.13 | 0.13 | 86 | 1072.5 |
| 20260505201610 | 61 | 202 | 0.0 | 0.0 | 0.06 | 0.13 | 0.13 | 87 | 1072.4 |
| 20260505200708 | 61 | 227 | 0.0 | 2.0 | 0.05 | 0.12 | 0.11 | 85 | 1072.4 |
| 20260505195725 | 63 | 292 | 0.0 | 0.0 | 0.03 | 0.10 | 0.09 | 80 | 1072.7 |
| 20260505194726 | 65 | 341 | 0.0 | 2.0 | 0.01 | 0.08 | 0.08 | 74 | 1072.8 |
| 20260505193725 | 67 | 247 | 0.0 | 2.0 | 0.00 | 0.07 | 0.07 | 69 | 1072.2 |
| 20260505193610 | 67 | 226 | 2.0 | 3.0 | 0.00 | 0.07 | 0.07 | 69 | 1072.2 |
| 20260505192624 | 68 | 225 | 0.0 | 1.0 | 0.00 | 0.07 | 0.07 | 68 | 1071.9 |
| 20260505191709 | 68 | 180 | 0.0 | 1.0 | 0.00 | 0.07 | 0.07 | 68 | 1072.0 |
| 20260505190710 | 68 | 270 | 0.0 | 0.0 | 0.00 | 0.07 | 0.07 | 68 | 1072.2 |
| 20260505185724 | 67 | 216 | 1.0 | 4.0 | 0.00 | 0.07 | 0.07 | 68 | 1072.3 |
| 20260505185626 | 67 | 233 | 0.0 | 3.0 | 0.00 | 0.07 | 0.07 | 68 | 1072.3 |
| 20260505184609 | 67 | 251 | 2.0 | 5.0 | 0.00 | 0.07 | 0.07 | 69 | 1072.5 |
| 20260505183609 | 67 | 249 | 3.0 | 5.0 | 0.00 | 0.07 | 0.07 | 68 | 1072.6 |
| 20260505181608 | 67 | 213 | 1.0 | 2.0 | 0.00 | 0.07 | 0.07 | 69 | 1073.0 |
| 20260505180608 | 67 | 71 | 0.0 | 0.0 | 0.00 | 0.07 | 0.07 | 69 | 1073.0 |
| 20260505175609 | 67 | 223 | 0.0 | 1.0 | 0.00 | 0.07 | 0.07 | 69 | 1073.2 |
| 20260505174608 | 67 | 207 | 0.0 | 2.0 | 0.00 | 0.07 | 0.07 | 69 | 1073.2 |
| 20260505173624 | 66 | 202 | 0.0 | 0.0 | 0.00 | 0.07 | 0.07 | 68 | 1073.3 |
| 20260505173524 | 66 | 202 | 0.0 | 1.0 | 0.00 | 0.07 | 0.07 | 67 | 1073.5 |
| 20260505172608 | 66 | 251 | 2.0 | 5.0 | 0.00 | 0.07 | 0.07 | 68 | 1073.5 |
| 20260505172525 | 66 | 247 | 0.0 | 4.0 | 0.00 | 0.07 | 0.07 | 67 | 1073.5 |
| 20260505172424 | 66 | 235 | 4.0 | 5.0 | 0.00 | 0.07 | 0.07 | 68 | 1073.4 |
| 20260505171409 | 67 | 67 | 0.0 | 0.0 | 0.00 | 0.07 | 0.07 | 68 | 1073.4 |
| 20260505170411 | 67 | 275 | 0.0 | 3.0 | 0.00 | 0.07 | 0.07 | 68 | 1073.4 |
| 20260505170308 | 67 | 215 | 0.0 | 1.0 | 0.00 | 0.07 | 0.07 | 68 | 1073.3 |
| 20260505170224 | 67 | 219 | 2.0 | 5.0 | 0.00 | 0.07 | 0.07 | 68 | 1073.4 |
| 20260505165307 | 66 | 310 | 1.0 | 3.0 | 0.00 | 0.07 | 0.07 | 69 | 1073.4 |
| 20260505164310 | 67 | 344 | 1.0 | 2.0 | 0.00 | 0.07 | 0.07 | 68 | 1073.4 |
| 20260505163224 | 66 | 230 | 2.0 | 4.0 | 0.00 | 0.07 | 0.07 | 70 | 1073.5 |
| 20260505162209 | 66 | 8 | 1.0 | 4.0 | 0.00 | 0.07 | 0.07 | 69 | 1073.4 |
| 20260505162125 | 66 | 141 | 0.0 | 2.0 | 0.00 | 0.07 | 0.07 | 68 | 1073.5 |
| 20260505161208 | 66 | 217 | 0.0 | 4.0 | 0.00 | 0.07 | 0.07 | 69 | 1073.4 |
| 20260505153208 | 68 | 292 | 0.0 | 0.0 | 0.00 | 0.07 | 0.07 | 70 | 1073.1 |
| 20260505152210 | 67 | 232 | 2.0 | 5.0 | 0.00 | 0.07 | 0.07 | 73 | 1073.2 |
| 20260505152109 | 67 | 250 | 1.0 | 3.0 | 0.00 | 0.07 | 0.07 | 73 | 1073.3 |
| 20260505151109 | 67 | 226 | 3.0 | 10.0 | 0.00 | 0.07 | 0.07 | 77 | 1073.3 |
| 20260505124608 | 58 | 212 | 3.0 | 5.0 | 0.01 | 0.07 | 0.07 | 93 | 1072.8 |
| 20260505123608 | 57 | 209 | 2.0 | 4.0 | 0.01 | 0.07 | 0.07 | 92 | 1072.8 |
| 20260505122608 | 57 | 201 | 0.0 | 1.0 | 0.01 | 0.07 | 0.07 | 93 | 1072.8 |
| 20260505120609 | 56 | 247 | 0.0 | 1.0 | 0.01 | 0.07 | 0.07 | 91 | 1072.9 |
| 20260505115707 | 56 | 229 | 1.0 | 2.0 | 0.01 | 0.07 | 0.07 | 92 | 1072.9 |
| 20260505114710 | 56 | 202 | 0.0 | 1.0 | 0.00 | 0.06 | 0.06 | 91 | 1072.7 |
| 20260505114627 | 56 | 221 | 0.0 | 2.0 | 0.00 | 0.06 | 0.06 | 91 | 1072.8 |
| 20260505114509 | 56 | 225 | 0.0 | 0.0 | 0.00 | 0.06 | 0.06 | 91 | 1072.5 |
| 20260505113507 | 56 | 225 | 0.0 | 0.0 | 0.01 | 0.06 | 0.06 | 91 | 1072.5 |
| 20260505113408 | 56 | 225 | 0.0 | 0.0 | 0.01 | 0.06 | 0.06 | 91 | 1072.6 |
| 20260505112410 | 55 | 249 | 1.0 | 2.0 | 0.02 | 0.06 | 0.06 | 90 | 1072.3 |
| 20260505111409 | 55 | 67 | 0.0 | 0.0 | 0.04 | 0.06 | 0.06 | 89 | 1071.9 |
| 20260505100624 | 57 | 247 | 1.0 | 2.0 | 0.02 | 0.02 | 0.02 | 85 | 1073.2 |
| 20260505095608 | 58 | 247 | 0.0 | 1.0 | 0.01 | 0.01 | 0.01 | 84 | 1073.2 |
| 20260505094609 | 59 | 247 | 0.0 | 0.0 | 0.00 | 0.00 | 0.00 | 82 | 1073.2 |
| 20260505093625 | 59 | 247 | 0.0 | 0.0 | 0.00 | 0.00 | 0.00 | 82 | 1073.0 |
| 20260505093508 | 59 | 247 | 0.0 | 0.0 | 0.00 | 0.00 | 0.00 | 81 | 1073.1 |
| 20260505085725 | 59 | 202 | 1.0 | 2.0 | 0.00 | 0.00 | 0.00 | 74 | 1071.9 |
| 20260505084807 | 59 | 202 | 0.0 | 0.0 | 0.00 | 0.00 | 0.00 | 72 | 1071.7 |
| 20260505083825 | 60 | 202 | 0.0 | 0.0 | 0.00 | 0.00 | 0.00 | 69 | 1071.8 |
| 20260505082909 | 61 | 202 | 0.0 | 0.0 | 0.00 | 0.00 | 0.00 | 67 | 1071.7 |
| 20260505082807 | 61 | 202 | 0.0 | 0.0 | 0.00 | 0.00 | 0.00 | 67 | 1071.6 |
| 20260505081809 | 62 | 202 | 0.0 | 0.0 | 0.00 | 0.00 | 0.00 | 66 | 1071.4 |
| 20260505080907 | 62 | 202 | 0.0 | 2.0 | 0.00 | 0.00 | 0.00 | 65 | 1071.1 |
| 20260505080809 | 62 | 202 | 0.0 | 0.0 | 0.00 | 0.00 | 0.00 | 65 | 1071.2 |
| 20260505075806 | 62 | 202 | 0.0 | 0.0 | 0.00 | 0.00 | 0.00 | 66 | 1071.1 |
| 20260505075709 | 62 | 202 | 0.0 | 0.0 | 0.00 | 0.00 | 0.00 | 66 | 1071.1 |
| 20260505074708 | 63 | 180 | 0.0 | 0.0 | 0.00 | 0.00 | 0.00 | 65 | 1071.1 |
| 20260505073708 | 63 | 157 | 0.0 | 0.0 | 0.00 | 0.00 | 0.00 | 65 | 1071.1 |
| 20260505072807 | 63 | 67 | 0.0 | 0.0 | 0.00 | 0.00 | 0.00 | 63 | 1070.9 |
| 20260505071809 | 64 | 202 | 0.0 | 0.0 | 0.00 | 0.00 | 0.00 | 62 | 1070.9 |
| 20260505070907 | 64 | 202 | 0.0 | 0.0 | 0.00 | 0.00 | 0.00 | 62 | 1071.0 |
| 20260505065911 | 64 | 202 | 0.0 | 0.0 | 0.00 | 0.00 | 0.00 | 62 | 1071.0 |
| 20260505064924 | 65 | 60 | 1.0 | 2.0 | 0.00 | 0.00 | 0.00 | 62 | 1070.8 |
| 20260505064809 | 65 | 319 | 0.0 | 1.0 | 0.00 | 0.00 | 0.00 | 61 | 1070.8 |
| 20260505064723 | 65 | 275 | 0.0 | 4.0 | 0.00 | 0.00 | 0.00 | 62 | 1070.9 |
| 20260505062907 | 64 | 221 | 2.0 | 6.0 | 0.00 | 0.00 | 0.00 | 63 | 1070.7 |
| 20260505061908 | 64 | 321 | 0.0 | 3.0 | 0.00 | 0.00 | 0.00 | 64 | 1070.6 |
| 20260505061825 | 64 | 337 | 0.0 | 0.0 | 0.00 | 0.00 | 0.00 | 63 | 1070.6 |
| 20260505060808 | 63 | 165 | 0.0 | 2.0 | 0.00 | 0.00 | 0.00 | 65 | 1070.4 |
| 20260505060709 | 63 | 211 | 0.0 | 2.0 | 0.00 | 0.00 | 0.00 | 65 | 1070.5 |
| 20260505055623 | 63 | 158 | 0.0 | 0.0 | 0.00 | 0.00 | 0.00 | 65 | 1070.2 |
| 20260505054622 | 63 | 192 | 0.0 | 2.0 | 0.00 | 0.00 | 0.00 | 63 | 1070.0 |
| 20260505053709 | 64 | 180 | 0.0 | 0.0 | 0.00 | 0.00 | 0.00 | 62 | 1070.1 |
| 20260505052710 | 64 | 176 | 0.0 | 1.0 | 0.00 | 0.00 | 0.00 | 62 | 1069.9 |
| 20260505052623 | 65 | 205 | 0.0 | 0.0 | 0.00 | 0.00 | 0.00 | 62 | 1069.9 |
| 20260505050708 | 65 | 220 | 2.0 | 4.0 | 0.00 | 0.00 | 0.00 | 62 | 1069.9 |
| 20260505040809 | 65 | 96 | 1.0 | 4.0 | 0.00 | 0.00 | 0.00 | 64 | 1070.6 |
| 20260505035817 | 64 | 180 | 0.0 | 1.0 | 0.00 | 0.00 | 0.00 | 65 | 1070.7 |
| 20260505033835 | 64 | 182 | 0.0 | 2.0 | 0.00 | 0.00 | 0.00 | 64 | 1070.6 |
| 20260505030920 | 65 | 202 | 0.0 | 0.0 | 0.00 | 0.00 | 0.00 | 62 | 1070.6 |
| 20260505030018 | 65 | 174 | 0.0 | 1.0 | 0.00 | 0.00 | 0.00 | 62 | 1070.5 |
| 20260505025018 | 66 | 180 | 0.0 | 0.0 | 0.00 | 0.00 | 0.00 | 61 | 1070.4 |
| 20260505024035 | 66 | 247 | 0.0 | 2.0 | 0.00 | 0.00 | 0.00 | 60 | 1070.2 |
| 20260505023021 | 66 | 104 | 0.0 | 2.0 | 0.00 | 0.00 | 0.00 | 60 | 1070.0 |
| 20260505022117 | 67 | 292 | 0.0 | 0.0 | 0.00 | 0.00 | 0.00 | 59 | 1069.8 |
| 20260505021117 | 67 | 247 | 0.0 | 0.0 | 0.00 | 0.00 | 0.00 | 57 | 1069.7 |
| 20260505021017 | 67 | 267 | 0.0 | 1.0 | 0.00 | 0.00 | 0.00 | 57 | 1069.7 |
| 20260505020019 | 67 | 67 | 0.0 | 0.0 | 0.00 | 0.00 | 0.00 | 57 | 1069.5 |
| 20260505015020 | 68 | 45 | 0.0 | 0.0 | 0.00 | 0.00 | 0.00 | 56 | 1069.5 |
| 20260505014117 | 68 | 202 | 0.0 | 0.0 | 0.00 | 0.00 | 0.00 | 55 | 1069.5 |
| 20260505012118 | 69 | 210 | 0.0 | 1.0 | 0.00 | 0.00 | 0.00 | 53 | 1069.3 |
| 20260505012019 | 69 | 279 | 0.0 | 2.0 | 0.00 | 0.00 | 0.00 | 53 | 1069.3 |
| 20260505011117 | 70 | 274 | 0.0 | 0.0 | 0.00 | 0.00 | 0.00 | 52 | 1069.3 |
| 20260505010116 | 70 | 214 | 3.0 | 8.0 | 0.00 | 0.00 | 0.00 | 51 | 1069.1 |
| 20260505005118 | 70 | 115 | 0.0 | 2.0 | 0.00 | 0.00 | 0.00 | 50 | 1069.1 |
| 20260505003117 | 72 | 221 | 0.0 | 2.0 | 0.00 | 0.00 | 0.00 | 48 | 1069.2 |
| 20260505003017 | 72 | 200 | 1.0 | 4.0 | 0.00 | 0.00 | 0.00 | 47 | 1069.2 |
| 20260505002017 | 72 | 212 | 1.0 | 3.0 | 0.00 | 0.00 | 0.00 | 46 | 1069.3 |
| 20260505001917 | 72 | 297 | 0.0 | 3.0 | 0.00 | 0.00 | 0.00 | 46 | 1069.3 |
| 20260505001818 | 72 | 194 | 0.0 | 3.0 | 0.00 | 0.00 | 0.00 | 47 | 1069.2 |
| 20260505001718 | 72 | 222 | 4.0 | 10.0 | 0.00 | 0.00 | 0.00 | 47 | 1069.2 |
| 20260505000817 | 73 | 238 | 2.0 | 5.0 | 0.00 | 0.00 | 0.00 | 45 | 1069.3 |
| 20260504234719 | 74 | 194 | 4.0 | 8.0 | 0.00 | 0.00 | 0.00 | 46 | 1069.5 |
| 20260504233718 | 74 | 223 | 3.0 | 5.0 | 0.00 | 0.00 | 0.00 | 46 | 1069.7 |
| 20260504232816 | 74 | 298 | 2.0 | 4.0 | 0.00 | 0.00 | 0.00 | 48 | 1069.6 |
| 20260504231817 | 73 | 203 | 1.0 | 4.0 | 0.00 | 0.00 | 0.00 | 52 | 1069.6 |
| 20260504230816 | 74 | 225 | 0.0 | 0.0 | 0.00 | 0.00 | 0.00 | 50 | 1069.7 |
| 20260504225831 | 74 | 225 | 0.0 | 0.0 | 0.00 | 0.00 | 0.00 | 49 | 1069.9 |
| 20260504224919 | 74 | 247 | 0.0 | 0.0 | 0.00 | 0.00 | 0.00 | 47 | 1069.9 |
| 20260504221919 | 74 | 224 | 2.0 | 5.0 | 0.00 | 0.00 | 0.00 | 50 | 1070.1 |
| 20260504221016 | 73 | 167 | 0.0 | 2.0 | 0.00 | 0.00 | 0.00 | 52 | 1070.5 |
| 20260504220918 | 73 | 247 | 0.0 | 0.0 | 0.00 | 0.00 | 0.00 | 52 | 1070.5 |
| 20260504215017 | 73 | 273 | 0.0 | 0.0 | 0.00 | 0.00 | 0.00 | 51 | 1070.6 |
| 20260504212017 | 74 | 291 | 0.0 | 0.0 | 0.00 | 0.00 | 0.00 | 52 | 1071.0 |
| 20260504210036 | 73 | 203 | 2.0 | 5.0 | 0.00 | 0.00 | 0.00 | 52 | 1071.3 |
| 20260504205118 | 73 | 351 | 0.0 | 3.0 | 0.00 | 0.00 | 0.00 | 53 | 1071.2 |
| 20260504205017 | 73 | 202 | 0.0 | 0.0 | 0.00 | 0.00 | 0.00 | 53 | 1071.3 |
| 20260504204933 | 73 | 202 | 0.0 | 1.0 | 0.00 | 0.00 | 0.00 | 52 | 1071.3 |